owner,sensor,date,latitude,longitude,vertical_datum,direction_of_sea_water_velocity,sea_water_speed,upward_sea_water_velocity,qcFlag 
TABS,ioos:station:wmo:42050:1,2004-05-01T00:30:00Z,28.8425,-94.2433,2.0,294.1714515,34.58190423,-99999.0,'11111222,11111222,99999999' 
TABS,ioos:station:wmo:42050:1,2004-05-01T01:00:00Z,28.8425,-94.2433,2.0,301.2619157,48.50217005,-99999.0,'11111222,11111222,99999999' 
TABS,ioos:station:wmo:42050:1,2004-05-01T01:30:00Z,28.8425,-94.2433,2.0,294.5826902,44.20669746,-99999.0,'11111222,11111222,99999999' 
TABS,ioos:station:wmo:42050:1,2004-05-01T02:00:00Z,28.8425,-94.2433,2.0,287.9424898,46.32275683,-99999.0,'11111222,11111222,99999999' 
TABS,ioos:station:wmo:42050:1,2004-05-01T04:30:00Z,28.8425,-94.2433,2.0,296.6293917,56.06720343,-99999.0,'11111222,11111222,99999999' 
TABS,ioos:station:wmo:42050:1,2004-05-01T05:00:00Z,28.8425,-94.2433,2.0,294.2210816,59.47552101,-99999.0,'11111222,11111222,99999999' 
TABS,ioos:station:wmo:42050:1,2004-05-01T05:30:00Z,28.8425,-94.2433,2.0,294.4397807,62.69776711,-99999.0,'11111222,11111222,99999999' 
TABS,ioos:station:wmo:42050:1,2004-05-01T06:00:00Z,28.8425,-94.2433,2.0,295.385717,61.90748339,-99999.0,'11111222,11111222,99999999' 
TABS,ioos:station:wmo:42050:1,2004-05-01T06:30:00Z,28.8425,-94.2433,2.0,292.2862518,58.85638453,-99999.0,'11111222,11111222,99999999' 
TABS,ioos:station:wmo:42050:1,2004-05-01T07:00:00Z,28.8425,-94.2433,2.0,290.3872905,57.09643159,-99999.0,'11111222,11111222,99999999' 
TABS,ioos:station:wmo:42050:1,2004-05-01T07:30:00Z,28.8425,-94.2433,2.0,287.0746408,53.26777638,-99999.0,'11111222,11111222,99999999' 
TABS,ioos:station:wmo:42050:1,2004-05-01T08:00:00Z,28.8425,-94.2433,2.0,286.2830611,55.06880424,-99999.0,'11111222,11111222,99999999' 
TABS,ioos:station:wmo:42050:1,2004-05-01T14:30:00Z,28.8425,-94.2433,2.0,298.8221296,36.57018594,-99999.0,'11111222,11111222,99999999' 
TABS,ioos:station:wmo:42050:1,2004-05-01T15:00:00Z,28.8425,-94.2433,2.0,300.4829638,35.73985031,-99999.0,'11111222,11111222,99999999' 
TABS,ioos:station:wmo:42050:1,2004-05-01T15:30:00Z,28.8425,-94.2433,2.0,304.6855792,32.89591008,-99999.0,'11111222,11111222,99999999' 
TABS,ioos:station:wmo:42050:1,2004-05-01T16:00:00Z,28.8425,-94.2433,2.0,300.3687541,30.20424639,-99999.0,'11111222,11111222,99999999' 
TABS,ioos:station:wmo:42050:1,2004-05-02T00:30:00Z,28.8425,-94.2433,2.0,263.9262986,28.92233047,-99999.0,'11111222,11111222,99999999' 
TABS,ioos:station:wmo:42050:1,2004-05-02T01:00:00Z,28.8425,-94.2433,2.0,261.961142,29.17667733,-99999.0,'11111222,11111222,99999999' 
TABS,ioos:station:wmo:42050:1,2004-05-02T01:30:00Z,28.8425,-94.2433,2.0,268.3933119,19.97785023,-99999.0,'11111222,11111222,99999999' 
TABS,ioos:station:wmo:42050:1,2004-05-02T02:00:00Z,28.8425,-94.2433,2.0,288.8615118,16.58028046,-99999.0,'11111222,11111222,99999999' 
TABS,ioos:station:wmo:42050:1,2004-05-02T10:30:00Z,28.8425,-94.2433,2.0,238.4202965,41.34212017,-99999.0,'11111222,11111222,99999999' 
TABS,ioos:station:wmo:42050:1,2004-05-02T11:00:00Z,28.8425,-94.2433,2.0,237.7949433,46.0084264,-99999.0,'11111222,11111222,99999999' 
TABS,ioos:station:wmo:42050:1,2004-05-02T11:30:00Z,28.8425,-94.2433,2.0,237.805163,43.35626944,-99999.0,'11111222,11111222,99999999' 
TABS,ioos:station:wmo:42050:1,2004-05-02T12:00:00Z,28.8425,-94.2433,2.0,245.0327892,46.34041109,-99999.0,'11111222,11111222,99999999' 
TABS,ioos:station:wmo:42050:1,2004-05-02T12:30:00Z,28.8425,-94.2433,2.0,245.1850728,45.67735216,-99999.0,'11111222,11111222,99999999' 
TABS,ioos:station:wmo:42050:1,2004-05-02T13:00:00Z,28.8425,-94.2433,2.0,248.3971459,43.32298351,-99999.0,'11111222,11111222,99999999' 
TABS,ioos:station:wmo:42050:1,2004-05-02T13:30:00Z,28.8425,-94.2433,2.0,250.6766015,43.4580775,-99999.0,'11111222,11111222,99999999' 
TABS,ioos:station:wmo:42050:1,2004-05-02T14:00:00Z,28.8425,-94.2433,2.0,251.8602268,42.91267878,-99999.0,'11111222,11111222,99999999' 
TABS,ioos:station:wmo:42050:1,2004-05-02T14:30:00Z,28.8425,-94.2433,2.0,255.4436267,41.97736771,-99999.0,'11111222,11111222,99999999' 
TABS,ioos:station:wmo:42050:1,2004-05-02T15:00:00Z,28.8425,-94.2433,2.0,251.50787,38.27622761,-99999.0,'11111222,11111222,99999999' 
TABS,ioos:station:wmo:42050:1,2004-05-02T15:30:00Z,28.8425,-94.2433,2.0,254.0857487,44.93202088,-99999.0,'11111222,11111222,99999999' 
TABS,ioos:station:wmo:42050:1,2004-05-02T16:00:00Z,28.8425,-94.2433,2.0,258.8719105,43.16145734,-99999.0,'11111222,11111222,99999999' 
TABS,ioos:station:wmo:42050:1,2004-05-02T20:30:00Z,28.8425,-94.2433,2.0,250.9919535,49.98545789,-99999.0,'11111222,11111222,99999999' 
TABS,ioos:station:wmo:42050:1,2004-05-02T21:00:00Z,28.8425,-94.2433,2.0,254.1289836,49.47594365,-99999.0,'11111222,11111222,99999999' 
TABS,ioos:station:wmo:42050:1,2004-05-02T21:30:00Z,28.8425,-94.2433,2.0,255.8480138,50.59545928,-99999.0,'11111222,11111222,99999999' 
TABS,ioos:station:wmo:42050:1,2004-05-02T22:00:00Z,28.8425,-94.2433,2.0,258.4007534,51.72628829,-99999.0,'11111222,11111222,99999999' 
TABS,ioos:station:wmo:42050:1,2004-05-03T00:30:00Z,28.8425,-94.2433,2.0,264.6110399,42.48776412,-99999.0,'11111222,11111222,99999999' 
TABS,ioos:station:wmo:42050:1,2004-05-03T01:00:00Z,28.8425,-94.2433,2.0,269.6105245,44.18101855,-99999.0,'11111222,11111222,99999999' 
TABS,ioos:station:wmo:42050:1,2004-05-03T01:30:00Z,28.8425,-94.2433,2.0,271.2006272,44.39974099,-99999.0,'11111222,11111222,99999999' 
TABS,ioos:station:wmo:42050:1,2004-05-03T02:00:00Z,28.8425,-94.2433,2.0,274.4873989,42.30967383,-99999.0,'11111222,11111222,99999999' 
TABS,ioos:station:wmo:42050:1,2004-05-03T08:30:00Z,28.8425,-94.2433,2.0,269.1220339,22.85268037,-99999.0,'11111222,11111222,99999999' 
TABS,ioos:station:wmo:42050:1,2004-05-03T09:00:00Z,28.8425,-94.2433,2.0,263.4692657,21.63034211,-99999.0,'11111222,11111222,99999999' 
TABS,ioos:station:wmo:42050:1,2004-05-03T09:30:00Z,28.8425,-94.2433,2.0,254.9863371,23.8956586,-99999.0,'11111222,11111222,99999999' 
TABS,ioos:station:wmo:42050:1,2004-05-03T10:00:00Z,28.8425,-94.2433,2.0,258.5722327,22.00623775,-99999.0,'11111222,11111222,99999999' 
TABS,ioos:station:wmo:42050:1,2004-05-03T10:30:00Z,28.8425,-94.2433,2.0,249.4576553,23.82489664,-99999.0,'11111222,11111222,99999999' 
TABS,ioos:station:wmo:42050:1,2004-05-03T11:00:00Z,28.8425,-94.2433,2.0,248.4788859,24.26138702,-99999.0,'11111222,11111222,99999999' 
TABS,ioos:station:wmo:42050:1,2004-05-03T11:30:00Z,28.8425,-94.2433,2.0,244.4404276,29.80690692,-99999.0,'11111222,11111222,99999999' 
TABS,ioos:station:wmo:42050:1,2004-05-03T12:00:00Z,28.8425,-94.2433,2.0,247.7071364,32.7151494,-99999.0,'11111222,11111222,99999999' 
TABS,ioos:station:wmo:42050:1,2004-05-03T14:30:00Z,28.8425,-94.2433,2.0,262.1246317,23.50163399,-99999.0,'11111222,11111222,99999999' 
TABS,ioos:station:wmo:42050:1,2004-05-03T15:00:00Z,28.8425,-94.2433,2.0,263.0809822,21.00293789,-99999.0,'11111222,11111222,99999999' 
TABS,ioos:station:wmo:42050:1,2004-05-03T15:30:00Z,28.8425,-94.2433,2.0,260.2916576,28.76186712,-99999.0,'11111222,11111222,99999999' 
TABS,ioos:station:wmo:42050:1,2004-05-03T16:00:00Z,28.8425,-94.2433,2.0,264.3752483,30.40638091,-99999.0,'11111222,11111222,99999999' 
TABS,ioos:station:wmo:42050:1,2004-05-03T16:30:00Z,28.8425,-94.2433,2.0,262.9061472,33.76846162,-99999.0,'11111222,11111222,99999999' 
TABS,ioos:station:wmo:42050:1,2004-05-03T17:00:00Z,28.8425,-94.2433,2.0,264.7187569,35.4203402,-99999.0,'11111222,11111222,99999999' 
TABS,ioos:station:wmo:42050:1,2004-05-03T17:30:00Z,28.8425,-94.2433,2.0,263.7816556,36.74617395,-99999.0,'11111222,11111222,99999999' 
TABS,ioos:station:wmo:42050:1,2004-05-03T18:00:00Z,28.8425,-94.2433,2.0,260.745144,36.25185926,-99999.0,'11111222,11111222,99999999' 
TABS,ioos:station:wmo:42050:1,2004-05-03T18:30:00Z,28.8425,-94.2433,2.0,259.022029,35.49957887,-99999.0,'11111222,11111222,99999999' 
TABS,ioos:station:wmo:42050:1,2004-05-03T19:00:00Z,28.8425,-94.2433,2.0,255.6399197,37.37776077,-99999.0,'11111222,11111222,99999999' 
TABS,ioos:station:wmo:42050:1,2004-05-03T19:30:00Z,28.8425,-94.2433,2.0,253.1734621,37.6206353,-99999.0,'11111222,11111222,99999999' 
TABS,ioos:station:wmo:42050:1,2004-05-03T20:00:00Z,28.8425,-94.2433,2.0,253.9855257,37.80714879,-99999.0,'11111222,11111222,99999999' 
TABS,ioos:station:wmo:42050:1,2004-05-03T20:30:00Z,28.8425,-94.2433,2.0,248.3181071,41.71097817,-99999.0,'11111222,11111222,99999999' 
TABS,ioos:station:wmo:42050:1,2004-05-03T21:00:00Z,28.8425,-94.2433,2.0,252.4388296,40.00430602,-99999.0,'11111222,11111222,99999999' 
TABS,ioos:station:wmo:42050:1,2004-05-03T21:30:00Z,28.8425,-94.2433,2.0,246.7143215,44.24375323,-99999.0,'11111222,11111222,99999999' 
TABS,ioos:station:wmo:42050:1,2004-05-03T22:00:00Z,28.8425,-94.2433,2.0,243.3170716,47.96823115,-99999.0,'11111222,11111222,99999999' 
TABS,ioos:station:wmo:42050:1,2004-05-04T00:30:00Z,28.8425,-94.2433,2.0,251.249972,46.6348121,-99999.0,'11111222,11111222,99999999' 
TABS,ioos:station:wmo:42050:1,2004-05-04T01:00:00Z,28.8425,-94.2433,2.0,254.2118495,44.4363106,-99999.0,'11111222,11111222,99999999' 
TABS,ioos:station:wmo:42050:1,2004-05-04T01:30:00Z,28.8425,-94.2433,2.0,259.1317958,43.96858538,-99999.0,'11111222,11111222,99999999' 
TABS,ioos:station:wmo:42050:1,2004-05-04T02:00:00Z,28.8425,-94.2433,2.0,265.5979342,44.69181692,-99999.0,'11111222,11111222,99999999' 
TABS,ioos:station:wmo:42050:1,2004-05-04T02:30:00Z,28.8425,-94.2433,2.0,272.5983298,44.78603019,-99999.0,'11111222,11111222,99999999' 
TABS,ioos:station:wmo:42050:1,2004-05-04T03:00:00Z,28.8425,-94.2433,2.0,278.390996,43.8594585,-99999.0,'11111222,11111222,99999999' 
TABS,ioos:station:wmo:42050:1,2004-05-04T03:30:00Z,28.8425,-94.2433,2.0,285.3431715,41.27089047,-99999.0,'11111222,11111222,99999999' 
TABS,ioos:station:wmo:42050:1,2004-05-04T04:00:00Z,28.8425,-94.2433,2.0,286.4412157,39.71379735,-99999.0,'11111222,11111222,99999999' 
TABS,ioos:station:wmo:42050:1,2004-05-04T04:30:00Z,28.8425,-94.2433,2.0,294.407299,35.86513627,-99999.0,'11111222,11111222,99999999' 
TABS,ioos:station:wmo:42050:1,2004-05-04T05:00:00Z,28.8425,-94.2433,2.0,295.9641724,34.94719445,-99999.0,'11111222,11111222,99999999' 
TABS,ioos:station:wmo:42050:1,2004-05-04T05:30:00Z,28.8425,-94.2433,2.0,306.3132457,30.24342904,-99999.0,'11111222,11111222,99999999' 
TABS,ioos:station:wmo:42050:1,2004-05-04T06:00:00Z,28.8425,-94.2433,2.0,320.8753246,25.00736691,-99999.0,'11111222,11111222,99999999' 
TABS,ioos:station:wmo:42050:1,2004-05-04T08:30:00Z,28.8425,-94.2433,2.0,20.05089384,7.962618916,-99999.0,'11133222,11111222,99999999' 
TABS,ioos:station:wmo:42050:1,2004-05-04T09:00:00Z,28.8425,-94.2433,2.0,17.93179988,4.31983796,-99999.0,'11133222,11111222,99999999' 
TABS,ioos:station:wmo:42050:1,2004-05-04T09:30:00Z,28.8425,-94.2433,2.0,111.5504977,16.11665288,-99999.0,'11111222,11111222,99999999' 
TABS,ioos:station:wmo:42050:1,2004-05-04T10:00:00Z,28.8425,-94.2433,2.0,117.8212711,15.29838227,-99999.0,'11111222,11111222,99999999' 
TABS,ioos:station:wmo:42050:1,2004-05-04T10:30:00Z,28.8425,-94.2433,2.0,133.6325704,19.85414063,-99999.0,'11111222,11111222,99999999' 
TABS,ioos:station:wmo:42050:1,2004-05-04T11:00:00Z,28.8425,-94.2433,2.0,139.4995639,21.54122791,-99999.0,'11111222,11111222,99999999' 
TABS,ioos:station:wmo:42050:1,2004-05-04T11:30:00Z,28.8425,-94.2433,2.0,166.616523,25.96512469,-99999.0,'11111222,11111222,99999999' 
TABS,ioos:station:wmo:42050:1,2004-05-04T12:00:00Z,28.8425,-94.2433,2.0,191.2023335,21.97877385,-99999.0,'11111222,11111222,99999999' 
TABS,ioos:station:wmo:42050:1,2004-05-04T12:30:00Z,28.8425,-94.2433,2.0,193.7093345,25.94930828,-99999.0,'11111222,11111222,99999999' 
TABS,ioos:station:wmo:42050:1,2004-05-04T13:00:00Z,28.8425,-94.2433,2.0,200.685869,29.38442615,-99999.0,'11111222,11111222,99999999' 
TABS,ioos:station:wmo:42050:1,2004-05-04T13:30:00Z,28.8425,-94.2433,2.0,210.5390212,30.32692698,-99999.0,'11111222,11111222,99999999' 
TABS,ioos:station:wmo:42050:1,2004-05-04T14:00:00Z,28.8425,-94.2433,2.0,216.3211902,30.50739746,-99999.0,'11111222,11111222,99999999' 
TABS,ioos:station:wmo:42050:1,2004-05-04T16:30:00Z,28.8425,-94.2433,2.0,233.8684647,31.64663015,-99999.0,'11111222,11111222,99999999' 
TABS,ioos:station:wmo:42050:1,2004-05-04T17:00:00Z,28.8425,-94.2433,2.0,240.613838,32.26082764,-99999.0,'11111222,11111222,99999999' 
TABS,ioos:station:wmo:42050:1,2004-05-04T17:30:00Z,28.8425,-94.2433,2.0,244.6285488,33.91062518,-99999.0,'11111222,11111222,99999999' 
TABS,ioos:station:wmo:42050:1,2004-05-04T18:00:00Z,28.8425,-94.2433,2.0,248.6070364,36.95616999,-99999.0,'11111222,11111222,99999999' 
TABS,ioos:station:wmo:42050:1,2004-05-05T00:30:00Z,28.8425,-94.2433,2.0,258.1869201,40.00727059,-99999.0,'11111222,11111222,99999999' 
TABS,ioos:station:wmo:42050:1,2004-05-05T01:00:00Z,28.8425,-94.2433,2.0,265.0091302,37.13075545,-99999.0,'11111222,11111222,99999999' 
TABS,ioos:station:wmo:42050:1,2004-05-05T01:30:00Z,28.8425,-94.2433,2.0,268.1364405,35.67886209,-99999.0,'11111222,11111222,99999999' 
TABS,ioos:station:wmo:42050:1,2004-05-05T02:00:00Z,28.8425,-94.2433,2.0,278.6830871,34.31324526,-99999.0,'11111222,11111222,99999999' 
TABS,ioos:station:wmo:42050:1,2004-05-05T04:30:00Z,28.8425,-94.2433,2.0,301.2903026,37.3529972,-99999.0,'11111222,11111222,99999999' 
TABS,ioos:station:wmo:42050:1,2004-05-05T05:00:00Z,28.8425,-94.2433,2.0,306.6414467,37.06429549,-99999.0,'11111222,11111222,99999999' 
TABS,ioos:station:wmo:42050:1,2004-05-05T05:30:00Z,28.8425,-94.2433,2.0,311.1550438,36.2713799,-99999.0,'11111222,11111222,99999999' 
TABS,ioos:station:wmo:42050:1,2004-05-05T06:00:00Z,28.8425,-94.2433,2.0,313.7385011,38.53252133,-99999.0,'11111222,11111222,99999999' 
TABS,ioos:station:wmo:42050:1,2004-05-05T06:30:00Z,28.8425,-94.2433,2.0,313.4498019,37.10840875,-99999.0,'11111222,11111222,99999999' 
TABS,ioos:station:wmo:42050:1,2004-05-05T07:00:00Z,28.8425,-94.2433,2.0,319.3956176,36.62979252,-99999.0,'11111222,11111222,99999999' 
TABS,ioos:station:wmo:42050:1,2004-05-05T07:30:00Z,28.8425,-94.2433,2.0,318.4623806,33.8402497,-99999.0,'11111222,11111222,99999999' 
TABS,ioos:station:wmo:42050:1,2004-05-05T08:00:00Z,28.8425,-94.2433,2.0,324.4669312,30.86839808,-99999.0,'11111222,11111222,99999999' 
TABS,ioos:station:wmo:42050:1,2004-05-05T08:30:00Z,28.8425,-94.2433,2.0,324.926891,28.2618913,-99999.0,'11111222,11111222,99999999' 
TABS,ioos:station:wmo:42050:1,2004-05-05T09:00:00Z,28.8425,-94.2433,2.0,318.5396924,23.93879905,-99999.0,'11111222,11111222,99999999' 
TABS,ioos:station:wmo:42050:1,2004-05-05T09:30:00Z,28.8425,-94.2433,2.0,311.991956,19.26692762,-99999.0,'11111222,11111222,99999999' 
TABS,ioos:station:wmo:42050:1,2004-05-05T10:00:00Z,28.8425,-94.2433,2.0,310.9678683,16.28964088,-99999.0,'11111222,11111222,99999999' 
TABS,ioos:station:wmo:42050:1,2004-05-05T10:30:00Z,28.8425,-94.2433,2.0,307.2351678,10.36221019,-99999.0,'11111222,11111222,99999999' 
TABS,ioos:station:wmo:42050:1,2004-05-05T11:00:00Z,28.8425,-94.2433,2.0,273.7920838,6.804895297,-99999.0,'11133222,11111222,99999999' 
TABS,ioos:station:wmo:42050:1,2004-05-05T11:30:00Z,28.8425,-94.2433,2.0,256.0033794,6.946221995,-99999.0,'11133222,11111222,99999999' 
TABS,ioos:station:wmo:42050:1,2004-05-05T12:00:00Z,28.8425,-94.2433,2.0,246.8243558,9.681224096,-99999.0,'11133222,11111222,99999999' 
TABS,ioos:station:wmo:42050:1,2004-05-05T12:30:00Z,28.8425,-94.2433,2.0,240.61015,11.79841091,-99999.0,'11111222,11111222,99999999' 
TABS,ioos:station:wmo:42050:1,2004-05-05T13:00:00Z,28.8425,-94.2433,2.0,234.5531779,10.22515526,-99999.0,'11111222,11111222,99999999' 
TABS,ioos:station:wmo:42050:1,2004-05-05T13:30:00Z,28.8425,-94.2433,2.0,247.01415,9.88481664,-99999.0,'11133222,11111222,99999999' 
TABS,ioos:station:wmo:42050:1,2004-05-05T14:00:00Z,28.8425,-94.2433,2.0,271.7777127,7.093412437,-99999.0,'11133222,11111222,99999999' 
TABS,ioos:station:wmo:42050:1,2004-05-05T14:30:00Z,28.8425,-94.2433,2.0,292.9356958,6.287018371,-99999.0,'11133222,11111222,99999999' 
TABS,ioos:station:wmo:42050:1,2004-05-05T15:00:00Z,28.8425,-94.2433,2.0,320.1284947,8.860158012,-99999.0,'11133222,11111222,99999999' 
TABS,ioos:station:wmo:42050:1,2004-05-05T15:30:00Z,28.8425,-94.2433,2.0,319.974827,7.339128014,-99999.0,'11133222,11111222,99999999' 
TABS,ioos:station:wmo:42050:1,2004-05-05T16:00:00Z,28.8425,-94.2433,2.0,327.2650607,4.992995093,-99999.0,'11133222,11111222,99999999' 
TABS,ioos:station:wmo:42050:1,2004-05-05T16:30:00Z,28.8425,-94.2433,2.0,279.991441,3.919438735,-99999.0,'11133222,11111222,99999999' 
TABS,ioos:station:wmo:42050:1,2004-05-05T17:00:00Z,28.8425,-94.2433,2.0,243.43459,4.896988871,-99999.0,'11133222,11111222,99999999' 
TABS,ioos:station:wmo:42050:1,2004-05-05T17:30:00Z,28.8425,-94.2433,2.0,239.2902351,14.29454791,-99999.0,'11111222,11111222,99999999' 
TABS,ioos:station:wmo:42050:1,2004-05-05T18:00:00Z,28.8425,-94.2433,2.0,256.5791116,18.95767918,-99999.0,'11111222,11111222,99999999' 
TABS,ioos:station:wmo:42050:1,2004-05-05T18:30:00Z,28.8425,-94.2433,2.0,259.393365,18.36373873,-99999.0,'11111222,11111222,99999999' 
TABS,ioos:station:wmo:42050:1,2004-05-05T19:00:00Z,28.8425,-94.2433,2.0,249.8892273,20.76606848,-99999.0,'11111222,11111222,99999999' 
TABS,ioos:station:wmo:42050:1,2004-05-05T19:30:00Z,28.8425,-94.2433,2.0,256.2169194,19.18233041,-99999.0,'11111222,11111222,99999999' 
TABS,ioos:station:wmo:42050:1,2004-05-05T20:00:00Z,28.8425,-94.2433,2.0,263.1770423,21.38140547,-99999.0,'11111222,11111222,99999999' 
TABS,ioos:station:wmo:42050:1,2004-05-05T23:00:00Z,28.8425,-94.2433,2.0,241.5632395,25.74640169,-99999.0,'11111222,11111222,99999999' 
TABS,ioos:station:wmo:42050:1,2004-05-05T23:30:00Z,28.8425,-94.2433,2.0,236.0448143,27.60772356,-99999.0,'11111222,11111222,99999999' 
TABS,ioos:station:wmo:42050:1,2004-05-06T00:00:00Z,28.8425,-94.2433,2.0,231.4175458,27.644343,-99999.0,'11111222,11111222,99999999' 
TABS,ioos:station:wmo:42050:1,2004-05-06T00:30:00Z,28.8425,-94.2433,2.0,234.5574152,25.12579949,-99999.0,'11111222,11111222,99999999' 
TABS,ioos:station:wmo:42050:1,2004-05-06T01:00:00Z,28.8425,-94.2433,2.0,236.758474,24.4269728,-99999.0,'11111222,11111222,99999999' 
TABS,ioos:station:wmo:42050:1,2004-05-06T01:30:00Z,28.8425,-94.2433,2.0,242.6816175,23.14082972,-99999.0,'11111222,11111222,99999999' 
TABS,ioos:station:wmo:42050:1,2004-05-06T02:00:00Z,28.8425,-94.2433,2.0,244.9187304,20.54741346,-99999.0,'11111222,11111222,99999999' 
TABS,ioos:station:wmo:42050:1,2004-05-06T06:30:00Z,28.8425,-94.2433,2.0,320.2098447,29.12583046,-99999.0,'11111222,11111222,99999999' 
TABS,ioos:station:wmo:42050:1,2004-05-06T07:00:00Z,28.8425,-94.2433,2.0,327.5792215,31.55908744,-99999.0,'11111222,11111222,99999999' 
TABS,ioos:station:wmo:42050:1,2004-05-06T07:30:00Z,28.8425,-94.2433,2.0,331.6881671,34.1785342,-99999.0,'11111222,11111222,99999999' 
TABS,ioos:station:wmo:42050:1,2004-05-06T08:00:00Z,28.8425,-94.2433,2.0,331.4762043,34.40636278,-99999.0,'11111222,11111222,99999999' 
TABS,ioos:station:wmo:42050:1,2004-05-06T08:30:00Z,28.8425,-94.2433,2.0,332.6348862,33.93787854,-99999.0,'11111222,11111222,99999999' 
TABS,ioos:station:wmo:42050:1,2004-05-06T09:00:00Z,28.8425,-94.2433,2.0,335.1897765,31.69547129,-99999.0,'11111222,11111222,99999999' 
TABS,ioos:station:wmo:42050:1,2004-05-06T09:30:00Z,28.8425,-94.2433,2.0,335.356104,30.55291312,-99999.0,'11111222,11111222,99999999' 
TABS,ioos:station:wmo:42050:1,2004-05-06T10:00:00Z,28.8425,-94.2433,2.0,334.8775487,28.78284211,-99999.0,'11111222,11111222,99999999' 
TABS,ioos:station:wmo:42050:1,2004-05-06T12:30:00Z,28.8425,-94.2433,2.0,336.3079975,13.56314492,-99999.0,'11111222,11111222,99999999' 
TABS,ioos:station:wmo:42050:1,2004-05-06T13:00:00Z,28.8425,-94.2433,2.0,335.3935266,9.030044297,-99999.0,'11133222,11111222,99999999' 
TABS,ioos:station:wmo:42050:1,2004-05-06T13:30:00Z,28.8425,-94.2433,2.0,321.3982853,7.741537315,-99999.0,'11133222,11111222,99999999' 
TABS,ioos:station:wmo:42050:1,2004-05-06T14:00:00Z,28.8425,-94.2433,2.0,320.6632206,8.45583822,-99999.0,'11133222,11111222,99999999' 
TABS,ioos:station:wmo:42050:1,2004-05-06T14:30:00Z,28.8425,-94.2433,2.0,311.3332804,6.965120243,-99999.0,'11133222,11111222,99999999' 
TABS,ioos:station:wmo:42050:1,2004-05-06T15:00:00Z,28.8425,-94.2433,2.0,338.5499059,7.273822929,-99999.0,'11133222,11111222,99999999' 
TABS,ioos:station:wmo:42050:1,2004-05-06T15:30:00Z,28.8425,-94.2433,2.0,311.1376765,7.767535002,-99999.0,'11133222,11111222,99999999' 
TABS,ioos:station:wmo:42050:1,2004-05-06T16:00:00Z,28.8425,-94.2433,2.0,321.9307516,6.973528519,-99999.0,'11133222,11111222,99999999' 
TABS,ioos:station:wmo:42050:1,2004-05-06T18:30:00Z,28.8425,-94.2433,2.0,314.031641,5.855681002,-99999.0,'11133222,11111222,99999999' 
TABS,ioos:station:wmo:42050:1,2004-05-06T19:00:00Z,28.8425,-94.2433,2.0,239.2283229,4.085119337,-99999.0,'11133222,11111222,99999999' 
TABS,ioos:station:wmo:42050:1,2004-05-06T19:30:00Z,28.8425,-94.2433,2.0,251.7921361,7.16893995,-99999.0,'11133222,11111222,99999999' 
TABS,ioos:station:wmo:42050:1,2004-05-06T20:00:00Z,28.8425,-94.2433,2.0,245.7319114,9.148398767,-99999.0,'11133222,11111222,99999999' 
TABS,ioos:station:wmo:42050:1,2004-05-06T20:30:00Z,28.8425,-94.2433,2.0,234.4408187,9.440471387,-99999.0,'11133222,11111222,99999999' 
TABS,ioos:station:wmo:42050:1,2004-05-06T21:00:00Z,28.8425,-94.2433,2.0,224.3716208,11.61139096,-99999.0,'11111222,11111222,99999999' 
TABS,ioos:station:wmo:42050:1,2004-05-06T21:30:00Z,28.8425,-94.2433,2.0,225.9082145,15.16227555,-99999.0,'11111222,11111222,99999999' 
TABS,ioos:station:wmo:42050:1,2004-05-06T22:00:00Z,28.8425,-94.2433,2.0,226.9407032,14.82239184,-99999.0,'11111222,11111222,99999999' 
TABS,ioos:station:wmo:42050:1,2004-05-06T22:30:00Z,28.8425,-94.2433,2.0,224.2060292,16.33573384,-99999.0,'11111222,11111222,99999999' 
TABS,ioos:station:wmo:42050:1,2004-05-06T23:00:00Z,28.8425,-94.2433,2.0,223.4680801,19.84143392,-99999.0,'11111222,11111222,99999999' 
TABS,ioos:station:wmo:42050:1,2004-05-06T23:30:00Z,28.8425,-94.2433,2.0,224.5238837,20.43609062,-99999.0,'11111222,11111222,99999999' 
TABS,ioos:station:wmo:42050:1,2004-05-07T00:00:00Z,28.8425,-94.2433,2.0,217.0172698,19.40006443,-99999.0,'11111222,11111222,99999999' 
TABS,ioos:station:wmo:42050:1,2004-05-07T02:30:00Z,28.8425,-94.2433,2.0,229.7633149,21.28673296,-99999.0,'11111222,11111222,99999999' 
TABS,ioos:station:wmo:42050:1,2004-05-07T03:00:00Z,28.8425,-94.2433,2.0,231.4517575,19.1922302,-99999.0,'11111222,11111222,99999999' 
TABS,ioos:station:wmo:42050:1,2004-05-07T03:30:00Z,28.8425,-94.2433,2.0,247.3609472,16.39307781,-99999.0,'11111222,11111222,99999999' 
TABS,ioos:station:wmo:42050:1,2004-05-07T04:00:00Z,28.8425,-94.2433,2.0,257.662772,15.53881591,-99999.0,'11111222,11111222,99999999' 
TABS,ioos:station:wmo:42050:1,2004-05-07T04:30:00Z,28.8425,-94.2433,2.0,263.476661,15.58086326,-99999.0,'11111222,11111222,99999999' 
TABS,ioos:station:wmo:42050:1,2004-05-07T05:00:00Z,28.8425,-94.2433,2.0,278.1305043,16.97056275,-99999.0,'11111222,11111222,99999999' 
TABS,ioos:station:wmo:42050:1,2004-05-07T05:30:00Z,28.8425,-94.2433,2.0,290.7505397,15.89076776,-99999.0,'11111222,11111222,99999999' 
TABS,ioos:station:wmo:42050:1,2004-05-07T06:00:00Z,28.8425,-94.2433,2.0,293.2265562,16.35553117,-99999.0,'11111222,11111222,99999999' 
TABS,ioos:station:wmo:42050:1,2004-05-07T06:30:00Z,28.8425,-94.2433,2.0,299.6797123,18.4390157,-99999.0,'11111222,11111222,99999999' 
TABS,ioos:station:wmo:42050:1,2004-05-07T07:00:00Z,28.8425,-94.2433,2.0,306.7373095,19.82805336,-99999.0,'11111222,11111222,99999999' 
TABS,ioos:station:wmo:42050:1,2004-05-07T07:30:00Z,28.8425,-94.2433,2.0,306.3325346,17.68877893,-99999.0,'11111222,11111222,99999999' 
TABS,ioos:station:wmo:42050:1,2004-05-07T08:00:00Z,28.8425,-94.2433,2.0,315.6939337,20.4439551,-99999.0,'11111222,11111222,99999999' 
TABS,ioos:station:wmo:42050:1,2004-05-07T14:30:00Z,28.8425,-94.2433,2.0,153.8382843,1.270118105,-99999.0,'11133222,11111222,99999999' 
TABS,ioos:station:wmo:42050:1,2004-05-07T15:00:00Z,28.8425,-94.2433,2.0,266.3473648,0.941912947,-99999.0,'11133222,11111222,99999999' 